Location: Newark
(48.8667°N, 7.2667°E)
Time: 20:33:46
(UTC+00:00)

OTV 5 (USA 277) - Visible Passes

Search period start: 16 October 2019 00:00
Search period end: 26 October 2019 00:00
Orbit: 310 x 324 km, 54.5° (Epoch: 08 October)

Date Brightness Start Highest point End Pass type
(mag) Time Alt. Az. Time Alt. Az. Time Alt. Az.
16 Oct ? 04:07:19 37° N 04:07:40 39° NNE 04:10:18 10° E visible
17 Oct ? 04:21:37 45° NW 04:22:19 72° NNE 04:25:03 10° ESE visible
18 Oct ? 04:36:01 34° W 04:36:52 51° SW 04:39:32 10° SE visible
19 Oct ? 03:19:36 12° E 03:19:36 12° E 03:19:49 10° ESE visible
19 Oct ? 04:50:31 20° WSW 04:51:16 22° SW 04:53:30 10° SSE visible
20 Oct ? 03:34:13 12° SE 03:34:13 12° SE 03:34:27 10° SE visible
20 Oct ? 05:05:08 10° WSW 05:05:33 10° SW 05:06:01 10° SW visible
